Weather in Neuilly-sur-Seine

France     48°53′19″N   2°16′26″E
temp.,
°C
wind,
m/s
gust,
m/s
humid.,
%
clouds,
%
prec.,
mm/h
press.,
hPa
HPBL,
m
7 may, fri
fri723:00+6wnw259289 0.1 1010228
02:00+4w24954 0.1 1012139
05:00+3wnw26931 0.0 1014163
08:00+5wnw26840 0.0 1016213
11:00+11wnw35545 0.0 10181261
14:00+14wnw333818 0.0 10182066
17:00+15wnw243197 0.0 10172539
20:00+13wsw2445100 0.0 10171082
8 may, sat
sat823:00+11s225625 0.0 101855
02:00+9se2461100 0.0 1017133
05:00+9sse3963100 0.0 1015366
08:00+10sse41167100 0.0 1014503
11:00+15ssw51062100 0.0 1013929
14:00+16ssw5964100 0.0 10111026
17:00+22ssw6945100 0.0 10091821
20:00+19s485899 0.0 1008853
9 may, sun
sun923:00+15se38777 0.0 1007174
02:00+15se31277100 0.0 1004327
05:00+14sse41485100 0.8 1002352
08:00+15s31388100 1.3 1002500
11:00+20s6126099 0.3 1001943
14:00+24ssw61142100 0.3 10001713
17:00+22ssw81455100 0.1 10001651
20:00+16ssw4117997 0.9 1000717
10 may, mon
mon1023:00+15sse51188100 0.6 1000591
02:00+13wsw41092100 5.3 1001685
05:00+12sw41092100 3.1 1002723
08:00+11ssw51189100 3.1 1006967
11:00+12ssw597472 0.0 10081058
14:00+18sw574388 0.0 10072206
17:00+15sse5766100 0.4 1008621
20:00+14s4875100 1.7 1009542
11 may, tue
tue1123:00+12sse2686100 0.0 1009209
02:00+10se268957 0.0 1009213
05:00+9ese2389100 0.0 1008103
08:00+10ene1284100 0.0 1008198
11:00+11ne2387100 0.6 1008355
14:00+13nne2384100 1.5 1008476
17:00+12nnw2589100 0.8 1008325
20:00+11nw3794100 1.1 1010399